Zurück zum Katalog

STARLINK-36919

AktivKommunikationVLEO
NORAD 68053·PAYLOAD·🇺🇸 United States

Gestartet Mar 2, 2026 von Vandenberg Space Force Base

Loading…

Nächste Überflüge (nächste 24 Stunden)

TLE

AktuellSource: CelesTrak SupGP

Epoche: Sep 14, 2026, 15:35 UTC

1 68053C 26041P   26257.64979167 -.00033051  00000+0 -97675-3 0  2573
2 68053  53.1571 249.1240 0001203  86.8549 206.7304 15.34399208    11

Verfolge STARLINK-36919 in Echtzeit mit AllMySat

Download on the App Store